Lid_Strength_Index
9 9 9 9 9 9 9 9 8 8 8 7 7 6 6 6 6 6 6 7 7 7 6 6 5 4 4 5 6 7 8 8
9 9 9 9 9 9 9 9 9 8 8 8 8 7 7 6 6 6 7 7 8 7 6 6 6 6 6 5 6 8 8 8
10 10 10 10 9 9 9 9 8 8 8 8 8 8 8 7 7 8 8 9 8 9 8 7 7 7 7 7 7 8 9 9
10 10 10 10 10 10 10 9 9 9 9 9 9 9 9 8 8 9 9 10 11 10 10 9 9 8 8 7 8 8 8 9
10 9 9 10 10 10 10 10 9 9 9 9 9 9 9 9 9 9 10 10 11 11 11 11 10 10 10 10 9 9 9 9
10 10 10 10 10 10 10 10 10 10 10 9 9 9 10 10 11 11 11 11 12 12 12 13 13 13 12 12 11 11 11 13
10 10 10 11 11 10 11 11 11 11 12 11 12 12 12 12 12 12 12 12 13 13 13 14 13 12 11 11 12 13 13 13
10 10 11 11 11 12 13 12 13 13 13 13 13 13 12 12 12 12 13 13 14 14 15 15 15 12 11 11 13 13 13 14
10 11 11 11 12 13 14 14 13 13 13 13 14 14 14 14 13 13 13 14 15 15 15 16 15 12 11 12 13 14 14 14
10 10 11 12 13 14 13 13 13 13 13 13 13 14 14 14 14 16 17 17 17 16 16 15 15 12 12 12 14 15 15 15
11 11 12 12 13 14 13 14 13 13 14 14 14 15 15 14 16 17 17 14 15 14 14 14 13 13 12 12 14 15 16 16
11 12 12 13 13 14 14 13 14 14 14 15 15 15 15 15 14 14 13 14 14 14 15 14 14 14 12 11 14 15 16 16
12 12 12 13 14 14 14 13 14 14 15 16 17 16 15 15 13 14 14 14 15 15 16 16 15 14 12 11 13 14 15 15
14 14 14 16 16 16 15 14 15 16 16 17 18 17 17 13 14 14 14 15 15 16 16 16 15 14 12 11 12 13 14 14
16 16 16 18 16 17 14 13 15 17 14 15 18 17 19 17 14 13 14 15 15 15 16 16 15 15 13 12 12 13 14 13
16 16 16 17 17 18 16 14 14 14 14 13 13 16 18 16 17 16 16 15 16 15 15 16 17 15 11 11 12 13 14 14
16 17 17 18 18 18 19 15 14 13 12 13 13 14 14 14 13 11 11 11 11 12 14 15 13 12 10 10 10 11 10 14
14 15 17 19 19 21 20 17 15 13 11 12 13 13 13 13 13 14 13 10 10 10 11 11 11 11 10 9 9 9 9 14
19 21 21 20 21 21 22 20 16 11 11 12 14 13 12 13 13 14 15 16 16 13 11 9 9 9 9 9 10 13 13 15
19 22 24 24 22 23 21 18 15 14 15 14 13 12 11 12 13 14 15 16 16 16 15 16 12 12 12 12 16 16 17 17